This is the latest recevied weather packets stored in our database for station/object VK6DC-13. If no packets are shown the sender has not sent any weather packets the latest 10 day(s).
| Time | Temp. | Humidity | Pressure | Rain* | Wind** | Luminosity | Snow |
|---|---|---|---|---|---|---|---|
| 1787644233 | 18.33° C | 77% | 1021.2 hPa | 0 mm | - | 124 W/m² | - |
| 1787643630 | 18.33° C | 76% | 1021.1 hPa | 0 mm | - | 214 W/m² | - |
| 1787643027 | 18.89° C | 76% | 1021.1 hPa | 0 mm | - | 193 W/m² | - |
| 1787642424 | 18.33° C | 76% | 1021.2 hPa | 0 mm | - | 234 W/m² | - |
| 1787641822 | 18.33° C | 77% | 1021.3 hPa | 0 mm | - | 175 W/m² | - |
| 1787641219 | 18.33° C | 77% | 1021.3 hPa | 0 mm | - | 225 W/m² | - |
| 1787640617 | 18.33° C | 76% | 1021.3 hPa | 0 mm | - | 344 W/m² | - |
| 1787640034 | 18.33° C | 75% | 1021.4 hPa | 0 mm | - | 198 W/m² | - |
| 1787639431 | 18.89° C | 74% | 1021.3 hPa | 0 mm | - | 253 W/m² | - |
| 1787638829 | 18.89° C | 74% | 1021.2 hPa | 0 mm | - | 532 W/m² | - |
| 1787638226 | 18.89° C | 74% | 1021.3 hPa | 0 mm | - | 469 W/m² | - |
| 1787637624 | 18.89° C | 72% | 1021.5 hPa | 0 mm | - | 509 W/m² | - |
| 1787637021 | 18.89° C | 74% | 1021.5 hPa | 0 mm | - | 653 W/m² | - |
| 1787636418 | 18.33° C | 75% | 1021.6 hPa | 0 mm | - | 361 W/m² | - |
| 1787635816 | 17.78° C | 77% | 1022 hPa | 0 mm | - | 476 W/m² | - |
| 1787635233 | 17.78° C | 79% | 1022.2 hPa | 0 mm | - | 404 W/m² | - |
| 1787634630 | 17.22° C | 81% | 1022.5 hPa | 0 mm | - | 415 W/m² | - |
| 1787634027 | 17.22° C | 79% | 1022.5 hPa | 0 mm | - | 353 W/m² | - |
| 1787633425 | 17.78° C | 76% | 1022.6 hPa | 0 mm | - | 250 W/m² | - |
| 1787632822 | 17.78° C | 76% | 1022.7 hPa | 0 mm | - | 258 W/m² | - |
| 1787632219 | 17.78° C | 76% | 1022.8 hPa | 0 mm | - | 275 W/m² | - |
| 1787631617 | 17.22° C | 79% | 1023 hPa | 0 mm | - | 252 W/m² | - |
| 1787631034 | 16.67° C | 81% | 1023.3 hPa | 0 mm | - | 219 W/m² | - |
| 1787630431 | 17.22° C | 79% | 1023.5 hPa | 0 mm | - | 195 W/m² | - |
| 1787629829 | 17.22° C | 78% | 1023.5 hPa | 0 mm | - | 314 W/m² | - |
* Rain latest hour (hover to see other rain measurements)
** Current wind speed in m/s (hover to see current wind gust speed)